Content
SEND FEEDBACK

Daily
Averages
Monthly
Summary
United Kingdom

COUNTY OAK, ENGLAND


Home > Europe > United Kingdom > England
Elevation: 203 feet     Latitude: 51 01N     Longitude: 000 10W

WEATHER
 
SELECT A DAY
Number of Records: 292,878;   Date Range: 7/1/96 - 7/27/14
 
SHARE

PRINT THIS DATA

[ ← Previous Day ]
WEATHER ALMANAC - FEBRUARY 14, 2013
[ Next Day → ]
[ °C ]   °F
Weather ElementAverageHighLow
Temperature45.3 °F51.8 °F (12:20 pm)35.6 °F (11:50 pm)
Dewpoint40.2 °F46.4 °F (9:20 am)33.8 °F (11:50 pm)
Humidity83.2 %100 % (3:20 am)62 % (1:20 pm)
Barometer29.87 in29.98 in (12:50 am)29.77 in (5:50 am)
Wind Speed9.7 mph15 mph (5:50 am)
Weather ElementAverage
Visibility4.7 mi
Wind DirectionWSW (239.1 °)

Weather ElementTotal
Precipitation---
Heating Degree Days21.3 (Base 65)
Averaged from 47 records on February 14, 2013
WEATHER CONDITIONS BREAKOUT
WIND DIRECTION BREAKOUT
WEATHER BY HOUR - FEBRUARY 14, 2013
[ °C ]   °F
Local TimeTemperatureDewpointHumidityBarometerVisibilityWind DirectionWind SpeedGust SpeedPrecipitationEventsConditions
12:50 AM39.2 °F37.4 °F93 %29.98 in2.8 miSouth (190°)10.4 mphRainLight Rain
1:20 AM41.0 °F37.4 °F87 %29.98 in3.1 miSouth (180°)9.2 mphHaze
1:50 AM41.0 °F39.2 °F93 %29.95 in1.9 miSouth (170°)9.2 mphRainLight Rain
2:20 AM41.0 °F39.2 °F93 %29.95 inSouth (170°)8.1 mphRainLight Rain
2:50 AM41.0 °F39.2 °F93 %29.92 in2.2 miSouth (170°)9.2 mphDrizzle
3:20 AM41.0 °F41.0 °F100 %29.89 in0.9 miSouth (170°)11.5 mphDrizzle
3:50 AM42.8 °F41.0 °F93 %29.86 in0.7 miSouth (180°)11.5 mphLight Drizzle
4:20 AM42.8 °F42.8 °F100 %29.83 in1.1 miSouth (180°)11.5 mphOvercast
4:50 AM44.6 °F42.8 °F93 %29.83 in1.2 miSouth (180°)12.7 mphLight Drizzle
5:20 AM44.6 °F42.8 °F93 %29.80 in1.9 miSouth (180°)12.7 mphRainLight Rain
5:50 AM44.6 °F42.8 °F93 %29.77 in4.3 miSouth (180°)15.0 mphRainRain
6:20 AM44.6 °F42.8 °F93 %29.77 in4.3 miSouth (190°)12.7 mphRainRain
6:50 AM46.4 °F42.8 °F87 %29.77 in4.3 miSSW (200°)13.8 mphRainLight Rain
7:20 AM46.4 °F44.6 °F93 %29.77 in5.0 miSSW (210°)10.4 mphRainLight Rain
7:50 AM46.4 °F44.6 °F93 %29.77 in3.7 miSW (220°)10.4 mphRainLight Rain
8:20 AM46.4 °F44.6 °F93 %29.77 in5.0 miSW (220°)10.4 mphLight Drizzle
8:50 AM46.4 °F44.6 °F93 %29.80 in5.6 miSW (230°)6.9 mphPartly Cloudy
9:20 AM48.2 °F46.4 °F93 %29.80 in6.2 miWSW (240°)8.1 mphPartly Cloudy
9:50 AM50.0 °F46.4 °F87 %29.80 in6.2 miWest (260°)11.5 mphPartly Cloudy
10:20 AM50.0 °F46.4 °F87 %29.83 in6.2 miWest (260°)12.7 mphMostly Cloudy
10:50 AM50.0 °F44.6 °F82 %29.83 in6.2 miWest (270°)12.7 mphMostly Cloudy
11:20 AM50.0 °F42.8 °F76 %29.83 in6.2 miWNW (290°)15.0 mphMostly Cloudy
11:50 AM50.0 °F42.8 °F76 %29.83 in6.2 miWNW (290°)13.8 mphScattered Clouds
12:20 PM51.8 °F42.8 °F71 %29.83 in6.2 miWNW (290°)13.8 mphMostly Cloudy
12:50 PM50.0 °F41.0 °F71 %29.83 in6.2 miWNW (290°)12.7 mphScattered Clouds
1:20 PM51.8 °F39.2 °F62 %29.83 in6.2 miWNW (290°)11.5 mphPartly Cloudy
1:50 PM51.8 °F39.2 °F62 %29.83 in6.2 miWNW (300°)12.7 mphScattered Clouds
2:20 PM50.0 °F39.2 °F66 %29.86 in6.2 miWNW (300°)11.5 mphScattered Clouds
2:50 PM50.0 °F37.4 °F62 %29.86 in6.2 miWNW (300°)12.7 mphScattered Clouds
3:20 PM50.0 °F37.4 °F62 %29.86 inWNW (300°)15.0 mphClear
3:50 PM50.0 °F37.4 °F62 %29.86 in6.2 miWNW (290°)10.4 mphPartly Cloudy
4:20 PM50.0 °F37.4 °F62 %29.89 in6.2 miWNW (300°)11.5 mphPartly Cloudy
4:50 PM48.2 °F37.4 °F66 %29.89 in6.2 miWest (280°)9.2 mphPartly Cloudy
5:20 PM46.4 °F37.4 °F71 %29.89 inWest (270°)6.9 mphClear
5:50 PM42.8 °F37.4 °F81 %29.89 inWSW (250°)6.9 mphClear
6:20 PM44.6 °F37.4 °F76 %29.92 in6.2 miWSW (250°)5.8 mphScattered Clouds
6:50 PM44.6 °F37.4 °F76 %29.92 in6.2 miSW (230°)4.6 mphPartly Cloudy
7:20 PM42.8 °F37.4 °F81 %29.92 inSW (230°)5.8 mphClear
7:50 PM42.8 °F39.2 °F87 %29.92 inSW (220°)5.8 mphClear
8:20 PM42.8 °F39.2 °F87 %29.95 inSW (230°)5.8 mphClear
8:50 PM42.8 °F39.2 °F87 %29.95 inWSW (250°)5.8 mphClear
9:20 PM41.0 °F37.4 °F87 %29.95 in6.2 miWest (260°)5.8 mphPartly Cloudy
9:50 PM42.8 °F37.4 °F81 %29.95 in6.2 miWest (280°)6.9 mphPartly Cloudy
10:20 PM41.0 °F37.4 °F87 %29.98 inSW (230°)4.6 mphClear
10:50 PM39.2 °F37.4 °F93 %29.98 inWest (270°)3.5 mphClear
11:20 PM37.4 °F35.6 °F93 %29.98 inWSW (250°)3.5 mphClear
11:50 PM35.6 °F33.8 °F93 %29.98 inWSW (250°)4.6 mphClear
Hourly data recorded from EGKK, located miles away from County Oak, England







STORIES FROM OUR PARTNERS